Delta Virtual Airport Information Service

Phoenix Sky Harbor International Airport

ICAO: KPHX Country: United States
Latitude: 33.4343 Longitude: -112.011
Latest Arrival : DAL6166831 (KLAX-KPHX) Latest Departure : SWA1866 (B) (KPHX-KLAX)


WX CaptureLIVE
Data provided by noaa.gov | Fetched at 22:08:54

METAR : KPHX 240251Z 23004KT 10SM BKN250 BKN290 29/10 A2986 RMK AO2 SLP096 T02890100 53012

TAF : KPHX 240230Z 2402/2506 29006KT P6SM BKN250 FM240700 10005KT P6SM BKN250 FM242100 25006KT P6SM BKN250


Runway Data for KPHX
Data provided by openaviationdata.com

Runway ID Mag Var Hdg Length Elevation Surface ILS Freq ILS Id ILS Slope
07L 12 78° 10287 ft 1135 ft Asphalt 111.5 IPHX 3
07R 12 78° 7791 ft 1135 ft Concrete 110.75 IAHA 3
8 12 78° 11477 ft 1135 ft Concrete 111.75 ISYQ 3
25L 12 258° 7791 ft 1135 ft Concrete 110.75 IRJG 3
25R 12 258° 10287 ft 1135 ft Asphalt -- -- --
26 12 258° 11477 ft 1135 ft Concrete 111.75 ICWJ 3

Phoenix Sky Harbor International Airport, United States
Use only for reference purposes



Not for navigational purposes.